Weather History for KEFK - May, 2014

Change the Weather History Date:

Sunday, May 25, 2014

  Actual Average Record
Temperature  
Mean Temperature 57 °F -  
Max Temperature 72 °F 69 °F 85 °F (1946)
Min Temperature 42 °F 45 °F 24 °F (1956)
Degree Days  
Heating Degree Days 8    
Growing Degree Days 7 (Base 50)    
Moisture  
Dew Point 47 °F    
Average Humidity 71    
Maximum Humidity 97    
Minimum Humidity 34    
Precipitation  
Precipitation 0.00 in - - ()
Sea Level Pressure  
Sea Level Pressure 30.02 in    
Wind  
Wind Speed 1 mph (West)    
Max Wind Speed 10 mph    
Max Gust Speed 9 mph    
Visibility 7 miles    
Events Fog , Rain    
Averages and records for this station are not official NWS values.
T = Trace of Precipitation, MM = Missing Value Source: NWS Daily Summary

Daily Weather History Graph

Daily Weather History Graph

Search for Another Location

Airport or City:

Trip Planner

Search our weather history database for the weather conditions in past years. The results will help you decide how hot, cold, wet, or windy it might be!

Date:

Astronomy

May. 25, 2014 Rise Set
Actual Time 5:10 AM EDT 8:21 PM EDT
Civil Twilight 4:35 AM EDT 8:57 PM EDT
Nautical Twilight 3:49 AM EDT 9:43 PM EDT
Astronomical Twilight 2:53 AM EDT 10:39 PM EDT
Moon 3:22 AM EDT (5/25) 5:11 PM EDT (5/25)
Length of Visible Light 16h 21m
Length of Day
15h 11m
Waning Crescent, 10% of the Moon is Illuminated
May 25
Waning Crescent
May 28
New
Jun 5
First Quarter
Jun 13
Full
Jun 19
Last Quarter

Hourly Weather History & Observations

Time (EDT) Temp. Dew Point Humidity Pressure Visibility Wind Dir Wind Speed Gust Speed Precip Events Conditions
12:15 AM 49.6 °F 48.2 °F 95% 30.05 in 4.0 mi Calm Calm - N/A   Clear
12:35 AM 49.1 °F 47.7 °F 95% 30.05 in 7.0 mi Calm Calm - N/A   Scattered Clouds
1:15 AM 49.1 °F 48.0 °F 96% 30.05 in 0.2 mi Calm Calm - N/A Fog Fog
1:35 AM 49.1 °F 47.8 °F 95% 30.04 in 0.2 mi Calm Calm - N/A Fog Fog
1:55 AM 48.7 °F 47.5 °F 95% 30.04 in 0.5 mi Calm Calm - N/A Fog Fog
2:15 AM 49.1 °F 48.0 °F 96% 30.04 in 0.5 mi Calm Calm - N/A Fog Fog
2:35 AM 47.3 °F 46.0 °F 95% 30.04 in 0.2 mi Calm Calm - N/A Fog Fog
2:55 AM 46.4 °F 45.1 °F 95% 30.04 in 0.2 mi Calm Calm - N/A Fog Fog
3:15 AM 46.0 °F 45.1 °F 97% 30.04 in 0.2 mi Calm Calm - N/A Fog Fog
3:35 AM 45.7 °F 44.6 °F 96% 30.04 in 0.2 mi Calm Calm - N/A Fog Fog
3:55 AM 45.5 °F 44.4 °F 96% 30.04 in 0.8 mi Calm Calm - N/A   Mostly Cloudy
4:15 AM 44.4 °F 43.2 °F 95% 30.04 in 0.2 mi Calm Calm - N/A Fog Fog
4:35 AM 45.3 °F 44.1 °F 95% 30.04 in 0.2 mi Calm Calm - N/A Fog Fog
4:55 AM 45.0 °F 43.9 °F 96% 30.05 in 0.2 mi Calm Calm - N/A Fog Fog
5:15 AM 42.8 °F 41.7 °F 96% 30.05 in 0.2 mi Calm Calm - N/A Fog Fog
5:35 AM 43.2 °F 42.1 °F 96% 30.06 in 0.2 mi Calm Calm - N/A Fog Fog
5:55 AM 45.0 °F 43.9 °F 96% 30.06 in 0.2 mi Calm Calm - N/A Fog Fog
6:15 AM 45.7 °F 44.6 °F 96% 30.06 in 0.2 mi Calm Calm - N/A Fog Fog
6:35 AM 46.8 °F 45.9 °F 97% 30.08 in 0.2 mi Calm Calm - N/A Fog Fog
6:55 AM 46.9 °F 45.9 °F 96% 30.08 in 0.2 mi Calm Calm - N/A Fog Fog
7:15 AM 47.8 °F 46.8 °F 96% 30.08 in 0.5 mi Calm Calm - N/A Fog Fog
7:35 AM 49.6 °F 48.6 °F 96% 30.08 in 2.0 mi Calm Calm - N/A   Overcast
7:55 AM 50.9 °F 49.8 °F 96% 30.08 in 10.0 mi Calm Calm - N/A   Scattered Clouds
8:15 AM 51.1 °F 50.0 °F 96% 30.08 in 0.5 mi Calm Calm - N/A Fog Fog
8:35 AM 51.4 °F 50.4 °F 96% 30.08 in 1.0 mi Calm Calm - N/A   Overcast
8:55 AM 54.1 °F 53.1 °F 96% 30.07 in 10.0 mi Calm Calm - N/A   Scattered Clouds
9:15 AM 54.9 °F 53.6 °F 96% 30.07 in 10.0 mi Calm Calm - N/A   Scattered Clouds
9:35 AM 56.8 °F 53.4 °F 88% 30.07 in 10.0 mi Calm Calm - N/A   Clear
10:15 AM 62.6 °F 52.9 °F 70% 30.07 in 10.0 mi Calm Calm - N/A   Clear
10:55 AM 64.8 °F 50.4 °F 60% 30.07 in 10.0 mi NNE 4.6 mph - N/A   Clear
11:15 AM 65.3 °F 49.3 °F 56% 30.06 in 10.0 mi North 5.8 mph - N/A   Clear
11:35 AM 65.8 °F 48.0 °F 53% 30.06 in 10.0 mi Calm Calm - N/A   Clear
11:55 AM 66.4 °F 46.6 °F 49% 30.05 in 10.0 mi WNW 3.5 mph - N/A   Clear
12:15 PM 67.5 °F 47.3 °F 48% 30.05 in 10.0 mi WSW 4.6 mph - N/A   Clear
12:55 PM 68.9 °F 49.5 °F 50% 30.03 in 10.0 mi NW 5.8 mph 9.2 mph N/A   Scattered Clouds
1:15 PM 69.1 °F 48.9 °F 49% 30.02 in 10.0 mi Calm Calm - N/A   Scattered Clouds
1:35 PM 70.0 °F 49.5 °F 48% 30.02 in 10.0 mi WNW 4.6 mph - N/A   Scattered Clouds
1:55 PM 69.3 °F 47.7 °F 46% 30.02 in 10.0 mi West 3.5 mph - N/A   Scattered Clouds
2:15 PM 70.5 °F 48.7 °F 46% 30.01 in 10.0 mi West 6.9 mph - N/A   Scattered Clouds
2:55 PM 70.9 °F 46.4 °F 42% 29.99 in 10.0 mi NNW 9.2 mph - N/A   Clear
3:15 PM 71.1 °F 45.3 °F 40% 29.99 in 10.0 mi NW 6.9 mph - N/A   Scattered Clouds
3:35 PM 71.6 °F 43.9 °F 37% 29.98 in 10.0 mi Calm Calm - N/A   Scattered Clouds
3:55 PM 71.4 °F 46.8 °F 41% 29.98 in 10.0 mi Calm Calm - N/A   Scattered Clouds
4:15 PM 71.1 °F 43.7 °F 37% 29.97 in 10.0 mi Calm Calm - N/A   Scattered Clouds
4:35 PM 72.3 °F 44.2 °F 36% 29.97 in 10.0 mi NW 6.9 mph - N/A   Clear
4:55 PM 72.1 °F 41.9 °F 34% 29.97 in 10.0 mi West 10.4 mph - N/A   Clear
5:15 PM 72.0 °F 43.9 °F 36% 29.97 in 10.0 mi NNW 5.8 mph - N/A   Clear
5:35 PM 71.8 °F 41.5 °F 34% 29.97 in 10.0 mi West 6.9 mph - N/A   Clear
5:55 PM 70.0 °F 41.4 °F 35% 29.96 in 10.0 mi West 4.6 mph - N/A   Clear
6:15 PM 70.2 °F 43.5 °F 38% 29.96 in 10.0 mi WSW 3.5 mph - N/A   Scattered Clouds
6:35 PM 69.3 °F 44.4 °F 41% 29.96 in 10.0 mi Calm Calm - N/A   Scattered Clouds
6:55 PM 69.4 °F 41.9 °F 37% 29.95 in 10.0 mi Calm Calm - N/A   Clear
7:15 PM 64.9 °F 45.5 °F 49% 29.95 in 10.0 mi Calm Calm - N/A   Scattered Clouds
7:35 PM 64.6 °F 46.4 °F 52% 29.95 in 10.0 mi Calm Calm - N/A   Mostly Cloudy
7:55 PM 64.8 °F 46.4 °F 51% 29.95 in 10.0 mi SSW 3.5 mph - N/A   Overcast
8:15 PM 63.9 °F 47.3 °F 55% 29.95 in 10.0 mi SSW 3.5 mph - N/A   Overcast
8:35 PM 61.9 °F 47.8 °F 60% 29.95 in 10.0 mi South 3.5 mph - N/A   Scattered Clouds
8:55 PM 63.1 °F 46.2 °F 54% 29.95 in 10.0 mi SSW 4.6 mph - N/A   Scattered Clouds
9:15 PM 61.7 °F 47.7 °F 60% 29.96 in 10.0 mi SSW 4.6 mph - N/A   Scattered Clouds
9:35 PM 61.2 °F 48.4 °F 63% 29.97 in 10.0 mi WSW 3.5 mph - N/A   Mostly Cloudy
9:55 PM 63.3 °F 47.7 °F 57% 29.99 in 10.0 mi NW 9.2 mph - N/A Rain Rain
10:15 PM 57.9 °F 52.3 °F 82% 29.98 in 7.0 mi WNW 5.8 mph - N/A Rain Rain
10:35 PM 56.8 °F 52.9 °F 87% 29.97 in 10.0 mi Calm Calm - N/A   Overcast
10:55 PM 56.5 °F 53.4 °F 89% 29.96 in 10.0 mi Calm Calm - N/A   Overcast
11:15 PM 56.5 °F 53.8 °F 91% 29.97 in 10.0 mi Calm Calm - N/A   Overcast
11:35 PM 56.5 °F 53.6 °F 90% 29.95 in 10.0 mi SW 5.8 mph - N/A   Overcast
11:55 PM 56.3 °F 52.7 °F 88% 29.94 in 10.0 mi SSE 5.8 mph - N/A   Overcast